DW1869 Weather Reports


time (UTC)temp
C
wind
direction
speed
KPH
gust
KPH
rain 1hr
cm
rain 24hr
cm
rain mn
cm
humidity
%
barometer
mb
20260502183054 13 360 0.0 4.8 0.00 0.00 0.00 85 1013.3
20260502181552 12 360 0.0 3.2 0.00 0.00 0.00 87 1013.4
20260502180119 12 0 0.0 3.2 0.00 0.00 0.00 86 1013.6
20260502163051 11 0 0.0 3.2 0.00 0.00 0.00 88 1015.2
20260502161554 11 0 0.0 3.2 0.00 0.00 0.00 89 1015.4
20260502151608 11 0 0.0 3.2 0.00 0.00 0.00 90 1014.7
20260502130104 10 0 0.0 1.6 0.00 0.00 0.00 92 1013.9
20260502123101 10 0 0.0 1.6 0.00 0.00 0.00 92 1013.9
20260502121603 10 0 0.0 1.6 0.00 0.00 0.00 92 1013.7
20260502114553 10 0 0.0 1.6 0.00 0.00 0.00 92 1013.9
20260502113057 10 0 0.0 3.2 0.00 0.00 0.00 92 1013.8
20260502111558 10 0 0.0 0.0 0.00 0.00 0.00 92 1013.8
20260502110055 10 0 0.0 0.0 0.00 0.00 0.00 91 1014.2
20260502104554 10 0 0.0 1.6 0.00 0.00 0.00 91 1014.1
20260502103053 10 0 0.0 1.6 0.00 0.00 0.00 91 1014.3
20260502101620 10 0 0.0 1.6 0.00 0.00 0.00 91 1014.0
20260502100110 10 0 0.0 1.6 0.00 0.00 0.00 92 1014.2
20260502080104 10 0 0.0 0.0 0.00 0.00 0.00 92 1013.3
20260502070050 10 0 0.0 1.6 0.00 0.00 0.00 92 1013.2
20260502064550 10 0 0.0 1.6 0.00 0.00 0.00 91 1013.3
20260502063054 10 0 0.0 0.0 0.00 0.00 0.00 91 1013.2
20260502061551 10 0 0.0 0.0 0.00 0.00 0.00 91 1013.3
20260502060056 10 0 0.0 0.0 0.00 0.00 0.00 91 1013.3
20260502054550 10 0 0.0 0.0 0.00 0.00 0.00 91 1013.4
20260502053055 10 0 0.0 0.0 0.00 0.00 0.00 91 1013.4
20260502051559 10 0 0.0 0.0 0.00 0.00 0.00 90 1013.7
20260502050056 10 0 0.0 0.0 0.00 0.00 0.00 90 1013.8
20260502044549 10 0 0.0 0.0 0.00 0.00 0.00 90 1013.8
20260502043050 10 0 0.0 0.0 0.00 0.00 0.00 90 1013.9
20260502041549 10 0 0.0 0.0 0.00 0.00 0.00 89 1014.0
20260502040050 10 0 0.0 0.0 0.00 0.00 0.00 89 1014.1
20260502034547 11 0 0.0 0.0 0.00 0.00 0.00 88 1014.2
20260502033053 11 0 0.0 0.0 0.00 0.00 0.00 88 1014.2
20260502031548 11 0 0.0 1.6 0.00 0.00 0.00 87 1014.1
20260502030050 11 153 0.0 1.6 0.00 0.00 0.00 87 1014.2
20260502024547 11 174 0.0 1.6 0.00 0.00 0.00 87 1014.3
20260502023051 11 0 0.0 3.2 0.00 0.00 0.00 87 1014.2
20260502021549 11 0 0.0 1.6 0.00 0.00 0.00 87 1014.4
20260502020047 11 123 0.0 3.2 0.00 0.00 0.00 87 1014.4
20260502014549 11 0 0.0 1.6 0.00 0.00 0.00 87 1014.2
20260502013056 10 0 0.0 0.0 0.00 0.00 0.00 87 1014.5
20260502011603 10 0 0.0 0.0 0.00 0.00 0.00 87 1014.4
20260502010048 11 0 0.0 1.6 0.00 0.00 0.00 86 1014.0
20260502004600 11 0 0.0 1.6 0.00 0.00 0.00 85 1014.2
20260502003050 11 0 0.0 0.0 0.00 0.00 0.00 83 1013.8
20260502001546 12 0 0.0 1.6 0.00 0.00 0.00 81 1013.9
20260502000107 12 0 0.0 1.6 0.00 0.00 0.00 79 1013.8
20260501234547 12 164 0.0 3.2 0.00 0.00 0.00 77 1013.8
20260501233048 12 0 0.0 3.2 0.00 0.00 0.00 76 1013.9
20260501231600 13 201 0.0 6.4 0.00 0.00 0.00 74 1013.7
20260501230049 13 0 0.0 8.0 0.00 0.00 0.00 75 1013.6
20260501224558 13 200 1.6 6.4 0.00 0.00 0.00 73 1013.9
20260501223050 13 145 0.0 6.4 0.00 0.00 0.00 74 1014.1
20260501221607 13 177 1.6 6.4 0.00 0.00 0.00 72 1014.3
20260501220053 13 214 3.2 11.3 0.00 0.00 0.00 71 1014.3
20260501214550 13 229 1.6 8.0 0.00 0.00 0.00 71 1014.4
20260501213049 13 163 1.6 9.7 0.00 0.00 0.00 72 1014.3
20260501211549 14 0 0.0 6.4 0.00 0.00 0.00 69 1014.3
20260501210049 15 313 1.6 8.0 0.00 0.00 0.00 65 1014.4
20260501204553 16 182 1.6 9.7 0.00 0.00 0.00 61 1014.3
20260501203046 17 248 1.6 8.0 0.00 0.00 0.00 57 1014.2
20260501201546 17 325 1.6 8.0 0.00 0.00 0.00 56 1014.1
20260501200048 17 240 0.0 8.0 0.00 0.00 0.00 57 1014.3
20260501194551 17 155 1.6 6.4 0.00 0.00 0.00 52 1014.6
20260501193047 17 163 1.6 9.7 0.00 0.00 0.00 55 1014.6
20260501191550 17 227 3.2 8.0 0.00 0.00 0.00 53 1014.9
20260501190059 17 159 1.6 9.7 0.00 0.00 0.00 56 1015.2
20260501184549 17 182 3.2 11.3 0.00 0.00 0.00 53 1015.6